Sedona, AZ

5:46 AM MST on September 18, 2019 (GMT -0700)
Sedona

Weather History for KSEZ - July, 2019

Change the Weather History Date:

Tuesday, July 23, 2019

  Actual Average Record
Temperature  
Mean Temperature 82 °F -  
Max Temperature 95 °F 94 °F 102 °F (2018)
Min Temperature 69 °F 63 °F 60 °F (2010)
Cooling Degree Days 17    
Growing Degree Days 32 (Base 50)    
Moisture  
Dew Point 54 °F    
Average Humidity 42    
Maximum Humidity 64    
Minimum Humidity 23    
Precipitation  
Precipitation 0.00 in - - ()
Sea Level Pressure  
Sea Level Pressure 30.25 in    
Wind  
Wind Speed 6 mph (East)    
Max Wind Speed 16 mph    
Max Gust Speed 20 mph    
Visibility 10 miles    
Events Thunderstorm    
Averages and records for this station are not official NWS values.
T = Trace of Precipitation, MM = Missing Value Source: NWS Daily Summary

Daily Weather History Graph

Daily Weather History Graph

Search for Another Location

Airport or City:

Astronomy

Jul. 23, 2019 Rise Set
Actual Time 5:30 AM MST 7:36 PM MST
Civil Twilight 5:01 AM MST 8:05 PM MST
Nautical Twilight 4:27 AM MST 8:39 PM MST
Astronomical Twilight 3:49 AM MST 9:16 PM MST
Moon 11:40 PM MST (7/23) 11:33 AM MST (7/23)
Length of Visible Light 15h 03m
Length of Day
14h 06m
Waning Gibbous, 62% of the Moon is Illuminated
Jul 23
Waning Gibbous
Jul 24
Last Quarter
Jul 31
New
Aug 7
First Quarter
Aug 15
Full

Hourly Weather History & Observations

Time (MST) Temp. Heat Index Dew Point Humidity Pressure Visibility Wind Dir Wind Speed Gust Speed Precip Events Conditions
12:15 AM 75.2 °F - 51.8 °F 44% 30.29 in 10.0 mi South 5.8 mph - N/A   Clear
12:35 AM 75.2 °F - 53.6 °F 47% 30.28 in 10.0 mi SSE 4.6 mph - N/A   Clear
12:55 AM 75.2 °F - 53.6 °F 47% 30.29 in 10.0 mi SSE 4.6 mph - N/A   Clear
1:15 AM 73.4 °F - 55.4 °F 53% 30.29 in 10.0 mi SSE 5.8 mph - N/A   Clear
1:35 AM 73.4 °F - 55.4 °F 53% 30.29 in 10.0 mi SE 3.5 mph - N/A   Clear
1:55 AM 73.4 °F - 57.2 °F 57% 30.29 in 10.0 mi Calm Calm - N/A   Clear
2:15 AM 71.6 °F - 57.2 °F 60% 30.29 in 10.0 mi WSW 5.8 mph - N/A   Scattered Clouds
2:35 AM 71.6 °F - 55.4 °F 57% 30.29 in 10.0 mi West 4.6 mph - N/A   Mostly Cloudy
2:55 AM 71.6 °F - 55.4 °F 57% 30.29 in 10.0 mi WSW 5.8 mph - N/A   Overcast
3:15 AM 71.6 °F - 55.4 °F 57% 30.29 in 10.0 mi SE 3.5 mph - N/A   Overcast
3:35 AM 69.8 °F - 57.2 °F 64% 30.29 in 10.0 mi Calm Calm - N/A   Scattered Clouds
3:55 AM 71.6 °F - 55.4 °F 57% 30.29 in 10.0 mi East 3.5 mph - N/A   Clear
4:15 AM 71.6 °F - 57.2 °F 60% 30.29 in 10.0 mi Calm Calm - N/A   Clear
4:35 AM 71.6 °F - 55.4 °F 57% 30.29 in 10.0 mi NNE 5.8 mph - N/A   Clear
4:55 AM 71.6 °F - 57.2 °F 60% 30.29 in 10.0 mi NE 4.6 mph - N/A   Clear
5:15 AM 71.6 °F - 57.2 °F 60% 30.29 in 10.0 mi NE 8.1 mph - N/A   Clear
5:35 AM 71.6 °F - 57.2 °F 60% 30.29 in 10.0 mi NNE 10.4 mph - N/A   Clear
5:55 AM 71.6 °F - 57.2 °F 60% 30.29 in 10.0 mi NNE 8.1 mph - N/A   Clear
6:15 AM 71.6 °F - 57.2 °F 60% 30.29 in 10.0 mi NE 8.1 mph - N/A   Clear
6:35 AM 73.4 °F - 55.4 °F 53% 30.29 in 10.0 mi NNE 6.9 mph - N/A   Clear
6:55 AM 73.4 °F - 55.4 °F 53% 30.29 in 10.0 mi NNE 9.2 mph - N/A   Clear
7:15 AM 75.2 °F - 57.2 °F 53% 30.29 in 10.0 mi NNE 5.8 mph - N/A   Clear
7:35 AM 77.0 °F - 55.4 °F 47% 30.30 in 10.0 mi NNE 5.8 mph - N/A   Clear
7:55 AM 77.0 °F - 55.4 °F 47% 30.29 in 10.0 mi NE 5.8 mph - N/A   Clear
8:15 AM 77.0 °F - 55.4 °F 47% 30.29 in 10.0 mi NNE 9.2 mph - N/A   Clear
8:35 AM 78.8 °F - 55.4 °F 44% 30.30 in 10.0 mi East 4.6 mph - N/A   Clear
8:55 AM 78.8 °F - 55.4 °F 44% 30.30 in 10.0 mi SE 3.5 mph - N/A   Clear
9:15 AM 82.4 °F 81.7 °F 55.4 °F 39% 30.29 in 10.0 mi SE 5.8 mph - N/A   Clear
9:35 AM 82.4 °F 82.5 °F 59.0 °F 45% 30.30 in 10.0 mi SE 9.2 mph - N/A   Clear
9:55 AM 82.4 °F 82.5 °F 59.0 °F 45% 30.30 in 10.0 mi SE 10.4 mph - N/A   Clear
10:15 AM 82.4 °F 82.5 °F 59.0 °F 45% 30.30 in 10.0 mi SSE 9.2 mph - N/A   Mostly Cloudy
10:35 AM 82.4 °F 82.5 °F 59.0 °F 45% 30.30 in 10.0 mi SE 8.1 mph - N/A   Scattered Clouds
10:55 AM 86.0 °F 85.4 °F 59.0 °F 40% 30.29 in 10.0 mi SSE 10.4 mph - N/A   Clear
11:15 AM 84.2 °F 83.0 °F 55.4 °F 37% 30.29 in 10.0 mi SE 8.1 mph - N/A   Mostly Cloudy
11:35 AM 84.2 °F 82.8 °F 53.6 °F 35% 30.29 in 10.0 mi SE 11.5 mph - N/A   Mostly Cloudy
11:55 AM 86.0 °F 84.2 °F 53.6 °F 33% 30.28 in 10.0 mi SE 10.4 mph - N/A   Scattered Clouds
12:15 PM 86.0 °F 84.2 °F 53.6 °F 33% 30.28 in 10.0 mi SE 8.1 mph - N/A   Scattered Clouds
12:35 PM 86.0 °F 84.2 °F 53.6 °F 33% 30.27 in 10.0 mi SE 5.8 mph - N/A   Scattered Clouds
12:55 PM 84.2 °F 82.8 °F 53.6 °F 35% 30.27 in 10.0 mi SSE 4.6 mph - N/A   Mostly Cloudy
1:15 PM 86.0 °F 84.2 °F 53.6 °F 33% 30.26 in 10.0 mi Calm Calm - N/A   Overcast
1:35 PM 87.8 °F 85.7 °F 53.6 °F 31% 30.25 in 10.0 mi East 3.5 mph - N/A   Scattered Clouds
1:55 PM 86.0 °F - 51.8 °F 31% 30.24 in 10.0 mi South 3.5 mph - N/A Thunderstorm Clear
2:15 PM 89.6 °F - 51.8 °F 27% 30.23 in 10.0 mi South 5.8 mph - N/A Thunderstorm Clear
2:35 PM 87.8 °F - 51.8 °F 29% 30.22 in 10.0 mi Calm Calm - N/A   Clear
2:55 PM 91.4 °F - 51.8 °F 26% 30.21 in 10.0 mi South 4.6 mph - N/A Thunderstorm Clear
3:15 PM 89.6 °F - 51.8 °F 27% 30.19 in 10.0 mi ESE 4.6 mph - N/A   Clear
3:35 PM 95.0 °F - 51.8 °F 23% 30.19 in 10.0 mi East 5.8 mph - N/A Thunderstorm Clear
3:55 PM 95.0 °F - 51.8 °F 23% 30.18 in 10.0 mi East 10.4 mph 16.1 mph N/A   Clear
4:15 PM 91.4 °F - 51.8 °F 26% 30.17 in 10.0 mi East 9.2 mph 17.3 mph N/A   Clear
4:35 PM 95.0 °F - 51.8 °F 23% 30.17 in 10.0 mi East 16.1 mph 19.6 mph N/A   Clear
4:55 PM 95.0 °F - 51.8 °F 23% 30.17 in 10.0 mi ESE 13.8 mph 18.4 mph N/A Thunderstorm Clear
5:15 PM 89.6 °F - 51.8 °F 27% 30.17 in 10.0 mi East 13.8 mph - N/A   Clear
5:35 PM 87.8 °F - 51.8 °F 29% 30.17 in 10.0 mi East 9.2 mph - N/A Thunderstorm Clear
5:55 PM 87.8 °F - 51.8 °F 29% 30.17 in 10.0 mi NE 8.1 mph - N/A   Clear
6:15 PM 86.0 °F 84.2 °F 53.6 °F 33% 30.18 in 10.0 mi NE 8.1 mph - N/A   Mostly Cloudy
6:35 PM 86.0 °F 84.2 °F 53.6 °F 33% 30.19 in 10.0 mi East 10.4 mph - N/A   Overcast
6:55 PM 86.0 °F - 51.8 °F 31% 30.20 in 10.0 mi East 9.2 mph - N/A   Mostly Cloudy
7:15 PM 84.2 °F - 51.8 °F 33% 30.20 in 10.0 mi Calm Calm - N/A   Scattered Clouds
7:30 PM 82.4 °F - 51.8 °F 35% 30.20 in 10.0 mi Calm Calm - N/A   Clear
7:55 PM 82.4 °F - 51.8 °F 35% 30.21 in 10.0 mi South 3.5 mph - N/A   Clear
8:15 PM 80.6 °F 80.3 °F 53.6 °F 39% 30.21 in 10.0 mi Calm Calm - N/A   Clear
8:35 PM 80.6 °F 80.3 °F 53.6 °F 39% 30.22 in 10.0 mi NW 5.8 mph - N/A   Clear
8:55 PM 80.6 °F 80.3 °F 53.6 °F 39% 30.22 in 10.0 mi North 4.6 mph - N/A   Clear
9:15 PM 80.6 °F 80.3 °F 53.6 °F 39% 30.22 in 10.0 mi NNE 3.5 mph - N/A   Scattered Clouds
9:35 PM 78.8 °F - 53.6 °F 42% 30.22 in 10.0 mi NNE 6.9 mph - N/A   Mostly Cloudy
9:55 PM 80.6 °F 80.3 °F 53.6 °F 39% 30.22 in 10.0 mi North 5.8 mph - N/A   Overcast
10:15 PM 78.8 °F - 53.6 °F 42% 30.22 in 10.0 mi NNE 9.2 mph - N/A   Overcast
10:35 PM 78.8 °F - 53.6 °F 42% 30.23 in 10.0 mi NE 9.2 mph - N/A   Mostly Cloudy
10:55 PM 78.8 °F - 53.6 °F 42% 30.22 in 10.0 mi NW 9.2 mph - N/A   Mostly Cloudy
11:15 PM 78.8 °F - 53.6 °F 42% 30.22 in 10.0 mi NW 4.6 mph - N/A   Mostly Cloudy
11:35 PM 78.8 °F - 53.6 °F 42% 30.21 in 10.0 mi Calm Calm - N/A   Scattered Clouds
11:55 PM 78.8 °F - 53.6 °F 42% 30.22 in 10.0 mi SE 3.5 mph - N/A   Scattered Clouds